Погода в Ишимской

Россия / Новосибирская область     54°43′38″N   75°54′02″E
темп.,
°C
ветер,
м/с
пор.,
м/с
влажн.,
%
обл.,
%
осадки,
мм/ч
давл.,
гПа
погр.,
м
20 июня, вс
вс2001:00+7зсз368013 0.0 101098
04:00+6зсз35817 0.0 101074
07:00+8з25767 0.0 1009129
10:00+14зюз45574 0.0 1008648
13:00+17юз5640100 0.0 10062254
16:00+18юз884283 0.0 10032320
19:00+14ююз51171100 0.1 1001895
22:00+11ю71389100 2.1 998659
21 июня, пн
пн2101:00+12зюз479679 9.8 997456
04:00+7зсз499739 0.1 998305
07:00+6зсз510925 0.1 1000364
10:00+10зсз677533 0.0 1001847
13:00+11сз6673100 0.1 10031150
16:00+10ссз4691100 0.3 1006451
19:00+10с51093100 1.2 1007649
22:00+10ссз51095100 0.8 1009624
22 июня, вт
вт2201:00+10ссз4993100 1.4 1009424
04:00+8сз499411 0.0 1009224
07:00+8ссз6139134 0.1 1011391
10:00+12ссз711680 0.0 1012998
13:00+15с81053100 0.0 10131981
16:00+15с565770 0.3 10141505
19:00+15ссз45648 1.5 10141132
22:00+11ссз348198 1.0 101462
23 июня, ср
ср2301:00+8ссз228844 1.0 101422
04:00+9с358984 0.0 1014104
07:00+9ссз3490100 0.0 1014134
10:00+13ссв346986 0.6 1014723
13:00+15ссв336181 1.3 10141255
16:00+15с4363100 2.4 10141119
19:00+15с4469100 3.6 1014936
22:00+12с368284 1.8 1014105
24 июня, чт
чт2401:00+9с35915 2.1 101567
04:00+7с359224 0.0 101583
07:00+8с3691100 0.0 1015179
10:00+13с4670100 0.6 1015443
13:00+15ссз4555100 1.1 10141494
16:00+16сз4449100 0.4 10142059
19:00+15сз556071 0.8 10141268
22:00+11сз358277 1.0 101472